Location: Ellingshausen
(50.5460°N, 10.4723°E)
Time: 23:59:03
(UTC+00:00)

NOAA 12 - Pass Details

Date: 18 January 2026
Orbit: 793 x 813 km, 98.6° (Epoch: 18 February)

Event Time Altitude Azimuth Distance (km) Brightness Sun altitude
Rises 05:00:10 0° 12° (NNE) 3,307 7.3 -20.1°
Reaches altitude 10° 05:02:32 10° 9° (N) 2,373 6.5 -19.8°
Maximum altitude 05:07:41 62° 290° (WNW) 893 4.0 -18.9°
Drops below altitude 10° 05:12:49 10° 211° (SSW) 2,360 6.3 -18.1°
Sets 05:15:09 0° 208° (SSW) 3,287 7.1 -17.8°
